Location: *
(37.5724°S, 58.0067°E)
Time: 20:29:30
(UTC+00:00)

Cosmos 1627 Rocket - Pass Details

Date: 26 September 2020
Orbit: 951 x 1004 km, 82.9° (Epoch: 27 October)

Event Time Altitude Azimuth Distance (km) Brightness Sun altitude
Exits shadow 16:44:10 73° 163° (SSE) 1,027 4.5 -30.4°
Drops below altitude 10° 16:49:46 10° 172° (S) 2,732 7.1 -31.3°
Sets 16:52:16 0° 172° (S) 3,679 7.8 -31.7°
